Location: Haram ta Haram Freeway
(35.0583°N, 51.4202°E)
Time: 14:54:19
(UTC+04:30)

CAS-4A - Pass Details

Date: 04 July 2020
Orbit: 528 x 545 km, 43.0° (Epoch: 02 August)

Event Time Altitude Azimuth Distance (km) Brightness Sun altitude
Exits shadow 03:32:14 16° 127° (SE) 1,432 ? -22.8°
Drops below altitude 10° 03:34:13 10° 98° (E) 1,778 ? -22.6°
Sets 03:37:04 0° 77° (ENE) 2,668 ? -22.3°
